Regional Weather Roundup
Issued by NWS

Home | Current Version | Previous Version | Graphics & Text | Print | Product List | Glossary On
Versions: 1 2 3 4 5 6 7 8 9 10 11 12 13 14 15 16 17 18 19 20 21 22 23 24 25 26 27 28 29 30 31 32 33 34 35 36 37 38 39 40 41 42 43 44 45 46 47 48 49 50
000
ASUS45 KCYS 221810
RWRWY

WYOMING REGIONAL WEATHER ROUNDUP
NATIONAL WEATHER SERVICE CHEYENNE WY
1200 PM MDT FRI AUG 22 2014

NOTE:  "FAIR" INDICATES FEW OR NO CLOUDS BELOW 12,000 FEET
WITH NO SIGNIFICANT WEATHER AND/OR OBSTRUCTIONS TO VISIBILITY.

WYZ001-221900-
YELLOWSTONE NATIONAL PARK

CITY           SKY/WX    TMP DP  RH WIND       PRES   REMARKS
LK YELLOWSTONE   N/A     48  43  82 VRB5      30.23S
6HR MIN TEMP:  43; 6HR MAX TEMP:  49; 6HR PCP:  0.02;

W YELLOWSTONE  NOT AVBL

$$
WYZ002>013-054>058-071-098>099-221900-
NORTHERN WYOMING

CITY           SKY/WX    TMP DP  RH WIND       PRES   REMARKS
JACKSON        CLOUDY    48  46  93 S9        30.20R
CODY           CLOUDY    57  50  77 E5        30.11S
GREYBULL       CLOUDY    65  53  65 NE3       30.05F
6HR MIN TEMP:  56; 6HR MAX TEMP:  65; 6HR PCP:  0.03;

WORLAND        PTSUNNY   68  51  54 N6        30.04F
6HR MIN TEMP:  54; 6HR MAX TEMP:  68; 6HR PCP:  0.02;

SHERIDAN       PTSUNNY   65  57  75 CALM      30.07S
6HR MIN TEMP:  57; 6HR MAX TEMP:  66; 6HR PCP:  0.01;

BUFFALO        PTSUNNY   67  53  61 S16       30.10F
6HR MIN TEMP:  55; 6HR MAX TEMP:  69; 6HR PCP:  0.01;

GILLETTE       PTSUNNY   71  53  52 VRB5      30.08F
6HR MIN TEMP:  58; 6HR MAX TEMP:  72;

HULETT         FAIR      70  55  60 MISG      30.10
NEWCASTLE      FAIR      70  52  52 S9        30.09

$$
WYZ014>020-022>026-101>103-221900-
CENTRAL WYOMING

CITY           SKY/WX    TMP DP  RH WIND       PRES   REMARKS
BIG PINEY      RAIN      51  45  79 N16       30.21R
6HR MIN TEMP:  47; 6HR MAX TEMP:  57; 6HR PCP:  0.01;

PINEDALE       CLOUDY    55  41  58 NW6       30.21S
DUBOIS         MOCLDY    54  43  66 NE8       30.18F
LANDER         LGT RAIN  63  48  58 N12       30.08F
6HR MIN TEMP:  49; 6HR MAX TEMP:  68; 6HR PCP: TRACE;

RIVERTON       PTSUNNY   65  45  48 CALM      30.10F
6HR MIN TEMP:  53; 6HR MAX TEMP:  65; 6HR PCP: TRACE;

CASPER         MOSUNNY   70  49  47 VRB5      30.10F
6HR MIN TEMP:  46; 6HR MAX TEMP:  71;

DOUGLAS        PTSUNNY   74  51  44 S7        30.10F
6HR MIN TEMP:  54; 6HR MAX TEMP:  74;


$$
WYZ021-027>030-104>119-221900-
SOUTHERN WYOMING

CITY           SKY/WX    TMP DP  RH WIND       PRES   REMARKS
EVANSTON       PTSUNNY   60  46  59 E5        30.16F
6HR MIN TEMP:  49; 6HR MAX TEMP:  62;

KEMMERER       MOCLDY    64  41  42 E5        30.18F
FORT BRIDGER   FAIR      61  48  62 CALM      30.20S
ROCK SPRINGS   MOSUNNY   70  44  39 VRB7      30.13F
6HR MIN TEMP:  45; 6HR MAX TEMP:  70;

DIXON          CLOUDY    72  43  35 SW10      30.18F
RAWLINS        SUNNY     68  46  45 VRB5      30.16F
6HR MIN TEMP:  44; 6HR MAX TEMP:  69;

SARATOGA       FAIR      72  43  35 MISG      30.20S
LARAMIE        PTSUNNY   68  42  38 SE12G22   30.20F
6HR MIN TEMP:  51; 6HR MAX TEMP:  69; 6HR PCP: TRACE;

CHEYENNE       CLOUDY    70  48  45 S7        30.19S
6HR MIN TEMP:  59; 6HR MAX TEMP:  71; 6HR PCP:  0.01;

TORRINGTON     CLOUDY    71  56  58 SE6       30.08F
6HR MIN TEMP:  57; 6HR MAX TEMP:  71;

PINE BLUFFS    FAIR      73  54  49 W3        30.13F

$$


USA.gov is the U.S. government's official web portal to all federal, state and local government web resources and services.